Weather History for KGDB - January, 2014

Change the Weather History Date:

Friday, January 3, 2014

  Actual Average (KMVE) Record (KMVE)
Temperature  
Mean Temperature 12 °F -  
Max Temperature 34 °F 21 °F 45 °F (1962)
Min Temperature -10 °F 1 °F -19 °F (1982)
Degree Days  
Heating Degree Days 53    
Moisture  
Dew Point 11 °F    
Average Humidity 82    
Maximum Humidity 89    
Minimum Humidity 75    
Precipitation  
Precipitation 0.06 in - - ()
Sea Level Pressure  
Sea Level Pressure 29.70 in    
Wind  
Wind Speed 17 mph (SSE)    
Max Wind Speed 26 mph    
Max Gust Speed 33 mph    
Visibility 6 miles    
Events Rain , Snow    
Averages and records for this station are not official NWS values.
T = Trace of Precipitation, MM = Missing Value Source: NWS Daily Summary

Daily Weather History Graph

Daily Weather History Graph

Search for Another Location

Airport or City:

Trip Planner

Search our weather history database for the weather conditions in past years. The results will help you decide how hot, cold, wet, or windy it might be!

Date:

Astronomy

Jan. 03, 2014 Rise Set
Actual Time 7:59 AM CST 4:54 PM CST
Civil Twilight 7:26 AM CST 5:27 PM CST
Nautical Twilight 6:49 AM CST 6:04 PM CST
Astronomical Twilight 6:14 AM CST 6:39 PM CST
Moon 9:18 AM CST (1/3) 8:13 PM CST (1/3)
Length of Visible Light 10h 01m
Length of Day
8h 54m
Waxing Crescent, 8% of the Moon is Illuminated
Jan 3
Waxing Crescent
Jan 7
First Quarter
Jan 15
Full
Jan 23
Last Quarter
Jan 30
New

Hourly Weather History & Observations

Time (CST) Temp. Windchill Dew Point Humidity Pressure Visibility Wind Dir Wind Speed Gust Speed Precip Events Conditions
12:13 AM -10.3 °F -30.0 °F -15.3 °F 78% 30.28 in 10.0 mi SE 11.5 mph - N/A   Scattered Clouds
12:32 AM -9.6 °F -28.1 °F -14.8 °F 78% 30.27 in 10.0 mi ESE 10.4 mph - N/A   Mostly Cloudy
12:52 AM -8.5 °F -28.6 °F -13.5 °F 79% 30.24 in 10.0 mi SE 12.7 mph - N/A   Overcast
1:12 AM -7.1 °F -28.4 °F -12.3 °F 78% 30.22 in 10.0 mi SE 15.0 mph - N/A   Mostly Cloudy
1:33 AM -6.0 °F -26.3 °F -11.2 °F 78% 30.21 in 10.0 mi SE 13.8 mph - N/A   Mostly Cloudy
1:52 AM -4.9 °F -26.3 °F -9.9 °F 79% 30.20 in 10.0 mi SE 16.1 mph - N/A   Overcast
2:12 AM -3.3 °F -24.9 °F -8.7 °F 78% 30.16 in 10.0 mi SE 17.3 mph - N/A   Mostly Cloudy
2:32 AM -2.2 °F -22.9 °F -7.8 °F 77% 30.16 in 10.0 mi SE 16.1 mph - N/A   Scattered Clouds
2:52 AM -1.3 °F -22.3 °F -6.9 °F 77% 30.13 in 10.0 mi SE 17.3 mph - N/A   Mostly Cloudy
3:12 AM 0.1 °F -21.0 °F -5.4 °F 77% 30.12 in 10.0 mi SE 18.4 mph - N/A   Overcast
3:32 AM 1.0 °F -19.9 °F -4.9 °F 76% 30.10 in 10.0 mi SE 18.4 mph - N/A   Overcast
3:52 AM 2.5 °F -19.0 °F -3.6 °F 76% 30.07 in 7.0 mi SE 20.7 mph 26.5 mph N/A   Overcast
4:12 AM 3.2 °F -17.6 °F -3.1 °F 75% 30.06 in 10.0 mi SE 19.6 mph 24.2 mph N/A   Overcast
4:32 AM 3.7 °F -17.4 °F -2.4 °F 76% 30.01 in 7.0 mi SE 20.7 mph - N/A   Mostly Cloudy
4:52 AM 4.8 °F -16.0 °F -1.3 °F 76% 30.00 in 10.0 mi SE 20.7 mph - N/A   Overcast
5:12 AM 5.7 °F -15.3 °F -0.2 °F 77% 29.98 in 10.0 mi SE 21.9 mph - N/A   Overcast
5:32 AM 6.8 °F -13.8 °F 2.1 °F 81% 29.95 in 4.0 mi SE 21.9 mph - N/A   Haze
5:52 AM 7.3 °F -11.1 °F 3.0 °F 82% 29.95 in 2.5 mi SE 17.3 mph - N/A Snow Light Snow
6:12 AM 7.7 °F -12.2 °F 4.1 °F 85% 29.93 in 2.5 mi SSE 20.7 mph - N/A Snow Light Snow
6:32 AM 9.3 °F -10.0 °F 5.2 °F 83% 29.93 in 5.0 mi SSE 20.7 mph 25.3 mph N/A   Mostly Cloudy
6:52 AM 9.9 °F -10.2 °F 5.9 °F 84% 29.91 in 2.0 mi SSE 23.0 mph 26.5 mph N/A Snow Light Snow
7:12 AM 10.0 °F -9.5 °F 6.3 °F 85% 29.89 in 1.2 mi SSE 21.9 mph 29.9 mph N/A Snow Light Snow
7:32 AM 10.0 °F -8.6 °F 6.4 °F 85% 29.86 in 1.5 mi SE 19.6 mph - N/A Snow Light Snow
7:53 AM 10.4 °F -8.2 °F 6.8 °F 85% 29.85 in 1.8 mi SSE 19.6 mph - N/A Snow Light Snow
8:12 AM 11.1 °F -8.9 °F 7.7 °F 86% 29.83 in 0.5 mi SSE 24.2 mph 28.8 mph N/A Snow Light Snow
8:32 AM 11.3 °F -9.4 °F 7.9 °F 86% 29.81 in 0.2 mi SSE 26.5 mph 33.4 mph N/A Snow Snow
8:52 AM 11.3 °F -9.1 °F 7.9 °F 86% 29.79 in 0.5 mi SSE 25.3 mph - N/A Snow Light Snow
9:12 AM 11.8 °F -8.4 °F 7.9 °F 84% 29.77 in 0.8 mi SSE 25.3 mph - N/A Snow Light Snow
9:32 AM 12.0 °F -8.1 °F 8.1 °F 84% 29.76 in 1.0 mi South 25.3 mph 29.9 mph N/A Snow Light Snow
9:52 AM 12.2 °F -7.1 °F 8.2 °F 84% 29.75 in 1.2 mi SSE 23.0 mph - N/A Snow Light Snow
10:12 AM 12.9 °F -5.7 °F 8.6 °F 83% 29.74 in 2.0 mi SSE 21.9 mph 28.8 mph N/A Snow Light Snow
10:32 AM 14.0 °F -5.1 °F 9.9 °F 84% 29.73 in 1.0 mi South 24.2 mph 29.9 mph N/A   Overcast
10:52 AM 14.2 °F -5.6 °F 10.2 °F 84% 29.70 in 0.8 mi SSE 26.5 mph 31.1 mph N/A   Overcast
11:13 AM 14.9 °F -4.3 °F 10.4 °F 82% 29.67 in 1.2 mi South 25.3 mph 31.1 mph N/A Snow Light Snow
11:32 AM 15.4 °F -3.2 °F 10.9 °F 82% 29.65 in 1.2 mi South 24.2 mph 33.4 mph N/A   Overcast
11:52 AM 15.8 °F -1.9 °F 11.1 °F 82% 29.64 in 1.5 mi South 21.9 mph - N/A   Haze
12:12 PM 16.2 °F -1.0 °F 11.3 °F 81% 29.62 in 2.5 mi South 20.7 mph 27.6 mph N/A   Haze
12:32 PM 16.7 °F 0.1 °F 11.7 °F 81% 29.60 in 4.0 mi South 19.6 mph - N/A   Haze
12:52 PM 17.4 °F 0.6 °F 12.4 °F 81% 29.57 in 3.0 mi SSE 20.7 mph 31.1 mph N/A   Haze
1:12 PM 17.6 °F 0.9 °F 12.7 °F 81% 29.55 in 2.5 mi SSE 20.7 mph - N/A   Overcast
1:33 PM 18.3 °F 2.2 °F 13.5 °F 81% 29.52 in 2.5 mi SSE 19.6 mph 27.6 mph N/A   Haze
1:52 PM 18.5 °F 3.8 °F 13.5 °F 81% 29.52 in 7.0 mi SSE 16.1 mph - N/A Snow Light Snow
2:12 PM 19.2 °F 3.0 °F 14.0 °F 80% 29.49 in 7.0 mi SSE 20.7 mph - N/A   Clear
2:32 PM 19.9 °F 6.2 °F 14.9 °F 81% 29.49 in 5.0 mi SSE 15.0 mph - N/A   Haze
2:52 PM 20.3 °F 5.2 °F 15.4 °F 81% 29.49 in 7.0 mi SSE 18.4 mph - N/A   Overcast
3:12 PM 21.0 °F 7.6 °F 16.2 °F 81% 29.49 in 7.0 mi SSE 15.0 mph - N/A   Mostly Cloudy
3:32 PM 21.2 °F 7.8 °F 16.7 °F 83% 29.47 in 7.0 mi SSE 15.0 mph - N/A   Mostly Cloudy
3:53 PM 22.1 °F 8.9 °F 17.2 °F 82% 29.46 in 7.0 mi SSE 15.0 mph - N/A   Overcast
4:12 PM 22.8 °F 15.5 °F 18.1 °F 82% 29.48 in 7.0 mi SSE 5.8 mph - N/A   Mostly Cloudy
4:32 PM 22.8 °F 11.5 °F 18.3 °F 83% 29.47 in 7.0 mi SSE 11.5 mph - N/A   Scattered Clouds
4:52 PM 23.7 °F 14.0 °F 19.0 °F 82% 29.45 in 7.0 mi SSE 9.2 mph - N/A   Mostly Cloudy
5:12 PM 23.7 °F 11.5 °F 19.4 °F 84% 29.45 in 7.0 mi SSE 13.8 mph - N/A   Scattered Clouds
5:32 PM 24.6 °F 12.2 °F 20.1 °F 83% 29.45 in 10.0 mi South 15.0 mph - N/A   Mostly Cloudy
5:52 PM 25.3 °F 14.1 °F 20.7 °F 82% 29.44 in 10.0 mi SSE 12.7 mph - N/A   Overcast
6:12 PM 25.5 °F 14.3 °F 21.0 °F 83% 29.44 in 10.0 mi SSE 12.7 mph - N/A   Overcast
6:32 PM 26.2 °F 14.7 °F 21.9 °F 84% 29.42 in 10.0 mi SSE 13.8 mph - N/A   Overcast
6:52 PM 26.6 °F 15.7 °F 22.3 °F 84% 29.42 in 10.0 mi SSE 12.7 mph - N/A   Mostly Cloudy
7:12 PM 27.9 °F 16.8 °F 23.4 °F 83% 29.41 in 10.0 mi SSE 13.8 mph - N/A   Overcast
7:32 PM 28.9 °F 18.2 °F 24.6 °F 84% 29.40 in 10.0 mi SSE 13.8 mph - N/A   Overcast
7:52 PM 30.6 °F 20.2 °F 26.6 °F 85% 29.41 in 7.0 mi South 13.8 mph - N/A   Overcast
8:12 PM 31.5 °F 21.8 °F 27.3 °F 85% 29.41 in 7.0 mi South 12.7 mph - N/A Rain Light Freezing Rain
8:32 PM 32.0 °F 23.0 °F 27.9 °F 85% 29.40 in 7.0 mi South 11.5 mph - 0.01 in Rain Rain
8:52 PM 32.2 °F 22.3 °F 28.4 °F 86% 29.40 in 7.0 mi South 13.8 mph - 0.02 in   Drizzle
9:12 PM 32.4 °F 23.0 °F 28.4 °F 85% 29.40 in 3.0 mi South 12.7 mph - 0.02 in Rain Light Rain
9:32 PM 32.4 °F 23.5 °F 28.9 °F 87% 29.40 in 5.0 mi South 11.5 mph - 0.03 in Rain Rain
9:52 PM 32.9 °F 25.3 °F 29.7 °F 88% 29.40 in 7.0 mi SSW 9.2 mph - 0.04 in Rain Rain
10:12 PM 32.9 °F 24.7 °F 29.5 °F 87% 29.42 in 10.0 mi SSW 10.4 mph - N/A   Light Drizzle
10:33 PM 32.9 °F 26.7 °F 29.7 °F 88% 29.39 in 10.0 mi SSW 6.9 mph - N/A Rain Light Rain
10:52 PM 33.1 °F 27.7 °F 30.0 °F 89% 29.39 in 10.0 mi SSW 5.8 mph - N/A Rain Light Rain
11:12 PM 33.8 °F 27.0 °F 30.6 °F 88% 29.39 in 10.0 mi SSW 8.1 mph - N/A   Overcast
11:32 PM 34.7 °F 26.4 °F 31.1 °F 87% 29.41 in 10.0 mi SW 11.5 mph - N/A   Overcast
11:52 PM 34.9 °F 24.9 °F 30.9 °F 85% 29.42 in 10.0 mi SW 16.1 mph - N/A   Mostly Cloudy